Regional Weather Roundup
Issued by NWS Kansas City/Pleasant Hill, MO

Home | Current Version | Previous Version | Text Only | Print | Product List | Glossary On
Versions: 1 2 3 4 5 6 7 8 9 10 11 12 13 14 15 16 17 18 19 20 21 22 23 24 25 26 27 28 29 30 31 32 33 34 35 36 37 38 39 40 41 42 43 44 45 46 47 48 49 50
000
ASUS43 KEAX 010010
RWREAX

WEATHER ROUNDUP FOR EASTERN KANSAS AND NORTHWEST MISSOURI
NATIONAL WEATHER SERVICE KANSAS CITY/PLEASANT HILL MO
700 PM CDT TUE JUN 30 2015

KSZ040-057-103>105-MOZ028-029-037-043-010100-
...KANSAS CITY METROPOLITAN AREA...

CITY           SKY/WX    TMP DP  RH WIND       PRES   REMARKS
K.C. INTL      CLOUDY    84  65  52 SE8       29.88F
6HR MIN TEMP:  82; 6HR MAX TEMP:  86;

K.C. DOWNTOWN  CLOUDY    85  65  51 E7        29.86F
6HR MIN TEMP:  84; 6HR MAX TEMP:  90;

LEES SUMMIT    PTSUNNY   83  66  56 E5        29.89F
6HR MIN TEMP:  82; 6HR MAX TEMP:  88;

OLATHE - IXD   PTSUNNY   85  66  53 E8        29.88F
6HR MIN TEMP:  85; 6HR MAX TEMP:  91;

OLATHE - OJC   PTSUNNY   83  65  54 E7        29.88F
6HR MIN TEMP:  83; 6HR MAX TEMP:  89;

LAWRENCE       PTSUNNY   84  70  62 E6        29.86F

$$

MOZ001>008-011>017-020>025-030>033-038>040-044>046-053-054-010100-
...NORTHERN AND CENTRAL MISSOURI...

CITY           SKY/WX    TMP DP  RH WIND       PRES   REMARKS
ST. JOSEPH     CLOUDY    81  67  62 NE5       29.87F
6HR MIN TEMP:  81; 6HR MAX TEMP:  85;

MOSBY          CLOUDY    82  68  61 CALM      29.87F
HARRISONVILLE  PTSUNNY   88  68  51 SE3       29.91S HX  91
WARRENSBURG    PTSUNNY   82  66  57 CALM      29.88F
WHITEMAN AFB   PTSUNNY   82  73  74 SW2       29.88F
6HR MIN TEMP:  81; 6HR MAX TEMP:  85;

CLINTON        PTSUNNY   84  72  65 MISG      29.89F
SEDALIA        CLOUDY    82  71  69 CALM      29.90F
6HR MIN TEMP:  82; 6HR MAX TEMP:  85;

WARSAW         FAIR      82  70  65 S3        29.90F HAZE
CHILLICOTHE      N/A     78  73  84 CALM      29.90S
6HR MIN TEMP:  78; 6HR MAX TEMP:  82;

KIRKSVILLE     PTSUNNY   78  68  71 NW3       29.90S
6HR MIN TEMP:  78; 6HR MAX TEMP:  81;


$$

MOZ041-047>049-056>058-063>065-088>090-097-010100-
...EASTERN AND SOUTHERN MISSOURI...

CITY           SKY/WX    TMP DP  RH WIND       PRES   REMARKS
ST. LOUIS INTL MOSUNNY   82  68  62 NW6       29.86S
6HR MIN TEMP:  82; 6HR MAX TEMP:  86;

SPIRIT OF STL  MOSUNNY   80  73  79 W6        29.85S
COLUMBIA       PTSUNNY   79  70  74 W7        29.89S
JEFFERSON CITY PTSUNNY   81  69  67 W5        29.87F
MEXICO         CLOUDY    81  72  74 W3        29.88F
ROLLA          PTSUNNY   78  69  73 W6        29.90S
OSAGE BEACH    PTSUNNY   81  70  69 W3        29.90F
SPRINGFIELD    MOSUNNY   85  66  53 N3        29.93S
BRANSON        SUNNY     84  72  65 CALM      29.95F
NEVADA         MOSUNNY   84  72  65 S5        29.91S
JOPLIN         SUNNY     88  71  57 S6        29.90F HX  94
WEST PLAINS    MOSUNNY   81  67  62 W5        29.95S
MALDEN         SUNNY     86  68  54 SW6       29.89R

$$

IAZ060-094-KSZ022-034>040-054-083-096-NEZ052-066-093-010100-
...KANSAS...SOUTHEAST NEBRASKA AND IOWA...

CITY           SKY/WX    TMP DP  RH WIND       PRES   REMARKS
TOPEKA         PTSUNNY   87  65  47 E8        29.85F
6HR MIN TEMP:  87; 6HR MAX TEMP:  92;

MANHATTAN      PTSUNNY   93  70  46 E8        29.80F HX  99
EMPORIA        PTSUNNY   92  67  43 S7        29.84F HX  95
CHANUTE        MOSUNNY   90  70  51 S8        29.87F HX  95
WICHITA        CLOUDY    95  58  28 SW9       29.85F HX  94
OMAHA          CLOUDY    75  65  70 E3        29.88S
LINCOLN        CLOUDY    79  63  57 E9        29.87F HAZE
FALLS CITY     CLOUDY    79  69  71 E7        29.86F
LAMONI         CLOUDY    77  69  76 CALM      29.90F
DES MOINES     CLOUDY    78  65  63 W5        29.88F

$$



USA.gov is the U.S. government's official web portal to all federal, state and local government web resources and services.